Weather History for Gainesville, GA

Change the Weather History Date:

Monday, January 3, 2011

  Actual Average Record
Temperature  
Mean Temperature 35 °F 41 °F  
Max Temperature 46 °F 50 °F 71 °F (1952)
Min Temperature 24 °F 33 °F 8 °F (1979)
Degree Days  
Heating Degree Days 30 24  
Month to date heating degree days 72  
Since 1 July heating degree days 1268  
Moisture  
Dew Point 16 °F    
Average Humidity 48    
Maximum Humidity 75    
Minimum Humidity 28    
Precipitation  
Precipitation 0.00 in 0.11 in 2.48 in (1982)
Month to date precipitation 0.35  
Year to date precipitation 0.35  
Snow  
Snow 0.00 in - - ()
Month to date snowfall  
Since 1 July snowfall  
Snow Depth -    
Sea Level Pressure  
Sea Level Pressure 30.25 in    
Wind  
Wind Speed 4 mph (WSW)    
Max Wind Speed 8 mph    
Max Gust Speed -    
Visibility 10 miles    
Events      
T = Trace of Precipitation, MM = Missing Value Source: NWS Daily Summary

Daily Weather History Graph

Daily Weather History Graph

Search for Another Location

Airport:

Trip Planner

Search our weather history database for the weather conditions in past years. The results will help you decide how hot, cold, wet, or windy it might be!

Date:

Astronomy

Jan. 03, 2011 Rise Set
Actual Time 7:41 AM EST 5:37 PM EST
Civil Twilight 7:14 AM EST 6:05 PM EST
Nautical Twilight 6:42 AM EST 6:36 PM EST
Astronomical Twilight 6:12 AM EST 7:07 PM EST
Moon 7:04 AM EST (1/3) 5:09 PM EST (1/3)
Length of Visible Light 10h 51m
Length of Day
9h 56m
Waning Crescent, 0% of the Moon is Illuminated
Jan 3
Waning Crescent
Jan 4
New
Jan 12
First Quarter
Jan 19
Full
Jan 26
Last Quarter

Hourly Weather History & Observations

Time (EST) Temp. Windchill Dew Point Humidity Pressure Visibility Wind Dir Wind Speed Gust Speed Precip Events Conditions
12:53 AM 28.9 °F 21.1 °F 17.1 °F 61% 30.22 in 10.0 mi WNW 8.1 mph - N/A   Clear
1:53 AM 28.9 °F 25.2 °F 16.0 °F 58% 30.22 in 10.0 mi NW 3.5 mph - N/A   Clear
2:53 AM 27.0 °F 21.6 °F 17.1 °F 66% 30.23 in 10.0 mi West 4.6 mph - N/A   Clear
3:53 AM 27.0 °F 20.5 °F 17.1 °F 66% 30.23 in 10.0 mi WNW 5.8 mph - N/A   Clear
4:53 AM 27.0 °F 19.5 °F 16.0 °F 63% 30.23 in 10.0 mi NW 6.9 mph - N/A   Clear
5:53 AM 26.1 °F 20.5 °F 16.0 °F 66% 30.24 in 10.0 mi NW 4.6 mph - N/A   Clear
6:53 AM 25.0 °F - 17.1 °F 72% 30.27 in 10.0 mi Calm Calm - N/A   Clear
7:53 AM 24.1 °F - 17.1 °F 75% 30.29 in 10.0 mi Calm Calm - N/A   Clear
8:53 AM 30.0 °F 26.5 °F 18.0 °F 61% 30.31 in 10.0 mi NNE 3.5 mph - N/A   Clear
9:53 AM 35.1 °F 31.0 °F 16.0 °F 46% 30.33 in 10.0 mi ESE 4.6 mph - N/A   Clear
10:53 AM 37.9 °F 33.5 °F 14.0 °F 38% 30.35 in 10.0 mi East 5.8 mph - N/A   Clear
11:53 AM 39.9 °F 37.8 °F 12.9 °F 33% 30.33 in 10.0 mi Variable 3.5 mph - N/A   Clear
12:53 PM 43.0 °F - 14.0 °F 31% 30.29 in 10.0 mi Calm Calm - N/A   Clear
1:53 PM 45.0 °F 43.5 °F 15.1 °F 30% 30.25 in 10.0 mi South 3.5 mph - N/A   Clear
2:53 PM 46.9 °F - 15.1 °F 28% 30.23 in 10.0 mi Calm Calm - N/A   Clear
3:53 PM 46.9 °F - 15.1 °F 28% 30.22 in 10.0 mi South 3.5 mph - N/A   Clear
4:53 PM 46.0 °F 44.8 °F 15.1 °F 29% 30.23 in 10.0 mi SW 3.5 mph - N/A   Clear
5:53 PM 42.1 °F - 15.1 °F 34% 30.23 in 10.0 mi Calm Calm - N/A   Clear
6:53 PM 39.9 °F - 16.0 °F 38% 30.25 in 10.0 mi Calm Calm - N/A   Clear
7:53 PM 41.0 °F - 17.1 °F 38% 30.25 in 10.0 mi Calm Calm - N/A   Clear
8:53 PM 39.9 °F 37.8 °F 18.0 °F 41% 30.24 in 10.0 mi SSE 3.5 mph - N/A   Clear
9:53 PM 39.9 °F 37.8 °F 19.0 °F 43% 30.23 in 10.0 mi SSE 3.5 mph - N/A   Clear
10:53 PM 37.9 °F - 19.0 °F 47% 30.22 in 10.0 mi Calm Calm - N/A   Clear
11:53 PM 34.0 °F - 21.9 °F 61% 30.21 in 10.0 mi Calm Calm - N/A   Clear